Regional Weather Roundup
Issued by NWS Cleveland, OH

Home | Current Version | Previous Version | Text Only | Print | Product List | Glossary On
Versions: 1 2 3 4 5 6 7 8 9 10 11 12 13 14 15 16 17 18 19 20 21 22 23 24 25 26 27 28 29 30 31 32 33 34 35 36 37 38 39 40 41 42 43 44 45 46 47 48 49 50
000
ASUS41 KCLE 270812
RWRCLE
OHIO REGIONAL WEATHER ROUNDUP
NATIONAL WEATHER SERVICE WILMINGTON, OH
400 AM EDT WED JUL 27 2016

NOTE: "FAIR" INDICATES FEW OR NO CLOUDS BELOW 12,000 FEET WITH NO
SIGNIFICANT WEATHER AND/OR OBSTRUCTIONS TO VISIBILITY.

OHZ001>008-015>018-024>027-034-035-043-044-270900-
   NORTHWEST OHIO

CITY           SKY/WX    TMP DP  RH WIND       PRES   REMARKS
DEFIANCE       FAIR      68  63  84 CALM      30.00S
FINDLAY        FAIR      67  61  81 CALM      30.00S
TOLEDO EXPRESS FAIR      64  64 100 CALM      30.00S
TOLEDO EXEC    FAIR      68  62  81 CALM      30.01R
LIMA           FAIR      69  61  75 CALM      30.01S
$$

OHZ009>014-019>023-028>033-038-089-270900-
   NORTHEAST OHIO

CITY           SKY/WX    TMP DP  RH WIND       PRES   REMARKS
CLE-HOPKINS    FAIR      68  56  65 S3        30.02S
CLE-LAKEFRONT  FAIR      71  56  58 S9        29.98F
CUY CO. ARPT   NOT AVBL
LORAIN-ELYRIA  FAIR      62  57  83 CALM      30.01F
ASHTABULA      FAIR      58  58 100 CALM      30.02F
AKRON-CANTON   CLOUDY    70  60  70 CALM      30.02F
WOOSTER        MOCLDY    64  62  93 CALM      30.03S
MANSFIELD      CLOUDY    69  57  65 SE3       30.03R
YOUNGSTOWN     MOCLDY    63  59  87 CALM      30.02F
$$

OHZ042-051>053-060>062-070>072-077>081-270900-
  SOUTHWEST OHIO

CITY           SKY/WX    TMP DP  RH WIND       PRES   REMARKS
CINC-COVINGTON MOCLDY    74  73  97 CALM      30.00S FOG
CINC-LUNKEN    FAIR      74  74 100 CALM      30.00R FOG
HAMILTON       FAIR      72  70  93 S3        30.00F
DAYTON         FAIR      70  67  90 E3        30.01F
WRIGHT-PAT AFB FAIR      72  71  95 NE5       29.99F
DAYTON GENERAL FAIR      72  68  87 S3        30.00F
WILMINGTON     CLOUDY    72  72 100 CALM      30.01S FOG
$$

OHZ036-037-039>041-045>050-054>059-063>069-073>076-082>088-270900-
  CENTRAL AND SOUTHEAST OHIO

CITY           SKY/WX    TMP DP  RH WIND       PRES   REMARKS
COLUMBUS       CLOUDY    75  65  70 E3        29.99S
OSU AIRPORT    MOCLDY    74  62  66 E5        30.00S
BOLTON FIELD   MOCLDY    71  71 100 CALM      30.01R FOG
RICKENBACK AFB CLOUDY    72  72 100 CALM      29.99S FOG
NEWARK         MOCLDY    74  59  59 CALM      30.00S
MARION         MOCLDY    71  60  68 CALM      30.01F
LANCASTER      CLOUDY    72  71  97 CALM      30.00F
ZANESVILLE     FAIR      76  68  76 NE3       30.00F
NEW PHILLY     CLOUDY    75  62  64 CALM      30.01F
$$



USA.gov is the U.S. government's official web portal to all federal, state and local government web resources and services.